Temp
-13 -14 -14 -14 -14 -14 -14 -15 -15 -16 -15 -15 -14 -14 -14 -13 -14 -15 -15 -14 -14 -13 -13 -13 -13 -13 -13 -13 -13 -13 -13 -13
-14 -14 -14 -14 -14 -15 -15 -15 -16 -16 -15 -15 -15 -15 -14 -14 -13 -14 -15 -14 -14 -13 -13 -13 -13 -13 -13 -13 -13 -13 -13 -13
-14 -14 -14 -14 -14 -14 -15 -15 -15 -15 -15 -15 -15 -15 -14 -14 -14 -14 -14 -14 -14 -13 -13 -14 -14 -13 -13 -13 -13 -13 -13 -13
-13 -14 -14 -14 -15 -15 -14 -14 -15 -15 -15 -15 -15 -15 -14 -14 -14 -14 -14 -14 -13 -13 -13 -13 -14 -13 -13 -13 -13 -13 -13 -13
-14 -14 -14 -14 -14 -14 -15 -15 -15 -15 -16 -16 -15 -15 -15 -15 -14 -15 -14 -14 -14 -13 -13 -13 -13 -13 -13 -13 -13 -13 -13 -13
-14 -14 -14 -14 -14 -14 -14 -15 -15 -16 -16 -15 -15 -15 -15 -15 -15 -15 -14 -14 -14 -13 -13 -13 -14 -13 -14 -13 -13 -13 -13 -13
-15 -15 -15 -15 -15 -15 -15 -15 -16 -16 -16 -16 -16 -15 -15 -15 -15 -15 -15 -14 -14 -14 -14 -13 -14 -13 -14 -13 -13 -13 -13 -13
-15 -15 -15 -15 -15 -15 -15 -16 -16 -17 -17 -16 -16 -16 -16 -16 -16 -15 -15 -15 -15 -15 -14 -13 -14 -14 -14 -14 -13 -13 -13 -14
-18 -18 -17 -17 -16 -16 -16 -17 -16 -16 -16 -16 -16 -17 -16 -16 -16 -16 -16 -16 -17 -16 -15 -14 -14 -14 -14 -14 -14 -14 -13 -13
-20 -20 -19 -18 -17 -17 -17 -17 -17 -17 -17 -17 -17 -17 -17 -17 -17 -17 -17 -17 -17 -17 -16 -15 -15 -14 -14 -14 -14 -14 -13 -14
-21 -21 -20 -20 -19 -18 -18 -17 -17 -17 -18 -17 -17 -17 -17 -17 -17 -17 -18 -18 -17 -17 -15 -15 -15 -15 -14 -15 -15 -14 -14 -14
-21 -21 -20 -20 -20 -20 -19 -18 -17 -18 -18 -17 -17 -18 -17 -17 -18 -17 -18 -18 -18 -18 -17 -15 -15 -15 -15 -14 -14 -14 -14 -14
-21 -21 -18 -18 -19 -19 -19 -18 -18 -18 -18 -17 -18 -18 -18 -18 -18 -18 -18 -19 -18 -18 -18 -16 -16 -15 -15 -15 -14 -14 -14 -14
-21 -21 -20 -17 -19 -19 -18 -18 -18 -18 -18 -18 -18 -18 -18 -18 -18 -18 -18 -19 -18 -17 -17 -16 -16 -15 -15 -15 -15 -14 -14 -14
-21 -20 -20 -18 -18 -18 -18 -18 -18 -18 -18 -18 -18 -18 -18 -18 -18 -18 -18 -18 -18 -18 -17 -17 -16 -16 -15 -15 -15 -15 -14 -14
-21 -20 -20 -20 -19 -19 -18 -18 -18 -18 -18 -18 -18 -18 -18 -18 -18 -19 -18 -18 -18 -18 -17 -17 -17 -16 -16 -15 -15 -15 -15 -15
-22 -21 -21 -20 -20 -19 -19 -18 -18 -18 -18 -18 -18 -18 -18 -18 -19 -19 -18 -19 -19 -19 -18 -18 -17 -16 -16 -16 -15 -15 -15 -15
-23 -22 -22 -21 -20 -20 -19 -19 -18 -18 -19 -19 -19 -18 -18 -18 -19 -19 -19 -19 -19 -19 -19 -18 -18 -17 -16 -16 -15 -15 -15 -15
-23 -23 -22 -22 -21 -21 -21 -20 -20 -20 -20 -20 -20 -19 -19 -19 -19 -19 -19 -19 -19 -18 -18 -18 -18 -18 -17 -16 -15 -15 -15 -15
Height
5725 5727 5727 5728 5727 5727 5728 5730 5734 5738 5741 5745 5750 5753 5755 5757 5759 5759 5758 5759 5760 5761 5762 5764 5764 5766 5769 5769 5770 5771 5770 5769
5710 5712 5712 5713 5715 5718 5720 5720 5724 5726 5729 5733 5736 5740 5744 5745 5746 5746 5746 5748 5750 5751 5753 5755 5756 5759 5761 5761 5763 5764 5765 5765
5697 5698 5699 5701 5705 5708 5710 5711 5712 5712 5718 5719 5722 5728 5730 5732 5732 5734 5736 5737 5739 5742 5743 5745 5747 5751 5753 5754 5755 5755 5756 5758
5681 5682 5683 5686 5691 5697 5698 5699 5700 5702 5706 5708 5709 5715 5715 5717 5720 5720 5723 5725 5728 5732 5733 5737 5739 5742 5745 5747 5747 5749 5749 5753
5669 5669 5671 5671 5678 5682 5684 5686 5687 5689 5693 5695 5698 5700 5704 5705 5706 5708 5709 5712 5717 5719 5723 5727 5730 5733 5736 5739 5740 5743 5744 5747
5654 5654 5657 5661 5666 5670 5671 5672 5674 5676 5679 5682 5685 5679 5687 5692 5695 5697 5701 5700 5705 5708 5712 5719 5723 5726 5728 5729 5732 5734 5737 5740
5637 5638 5640 5645 5652 5654 5657 5660 5662 5664 5667 5668 5674 5673 5675 5678 5684 5687 5689 5692 5696 5701 5702 5709 5714 5717 5720 5721 5723 5725 5728 5731
5618 5619 5623 5627 5635 5638 5642 5645 5647 5651 5652 5658 5657 5663 5665 5669 5672 5676 5678 5680 5684 5688 5691 5697 5703 5708 5710 5711 5714 5717 5720 5722
5598 5598 5603 5608 5617 5621 5626 5630 5632 5636 5639 5643 5647 5648 5653 5657 5662 5666 5667 5671 5674 5677 5682 5686 5691 5697 5700 5703 5706 5708 5710 5714
5581 5582 5587 5591 5599 5604 5609 5615 5620 5624 5627 5632 5637 5640 5644 5648 5651 5654 5658 5660 5665 5667 5672 5676 5681 5686 5691 5693 5695 5699 5702 5706
5568 5573 5574 5578 5583 5590 5596 5603 5608 5613 5619 5624 5627 5629 5634 5638 5640 5644 5646 5649 5653 5657 5660 5665 5669 5674 5679 5682 5684 5689 5693 5697
5563 5565 5563 5564 5571 5579 5588 5593 5598 5605 5611 5612 5616 5620 5624 5628 5631 5633 5636 5639 5642 5645 5649 5653 5659 5664 5668 5672 5676 5680 5684 5688
5559 5560 5562 5550 5559 5570 5578 5585 5590 5596 5601 5605 5610 5613 5617 5619 5621 5622 5625 5628 5631 5635 5640 5645 5649 5652 5657 5661 5665 5670 5674 5678
5547 5553 5556 5542 5556 5561 5568 5574 5582 5587 5593 5597 5600 5606 5609 5611 5612 5612 5616 5618 5621 5623 5628 5633 5638 5642 5647 5651 5656 5659 5663 5668
5543 5546 5547 5534 5543 5547 5561 5566 5568 5576 5583 5589 5592 5598 5600 5601 5603 5604 5606 5608 5610 5612 5616 5622 5626 5632 5636 5641 5645 5648 5653 5658
5541 5540 5543 5537 5531 5542 5550 5557 5562 5569 5575 5579 5584 5588 5591 5593 5595 5596 5598 5598 5601 5602 5604 5610 5616 5620 5625 5630 5633 5638 5642 5646
5540 5540 5541 5539 5536 5540 5542 5548 5555 5560 5566 5570 5575 5578 5582 5586 5588 5590 5590 5591 5593 5594 5596 5599 5603 5609 5614 5617 5622 5625 5629 5634
5536 5536 5537 5535 5537 5543 5545 5546 5552 5557 5560 5562 5566 5569 5572 5577 5580 5581 5582 5583 5585 5585 5586 5588 5592 5597 5602 5606 5610 5614 5617 5621
5535 5535 5533 5534 5536 5539 5541 5541 5543 5547 5551 5555 5557 5560 5563 5567 5570 5572 5573 5575 5576 5578 5577 5579 5582 5584 5588 5594 5598 5601 5603 5610
Wind_Speed
42 45 51 58 60 64 67 68 64 62 59 57 50 49 46 45 39 40 41 43 42 38 38 39 36 33 28 28 22 19 21 24
41 43 49 53 56 61 66 70 67 64 64 63 60 53 55 51 43 43 45 45 46 40 40 40 37 33 31 31 26 26 22 23
47 47 46 45 44 52 58 65 70 72 68 68 66 66 63 59 57 50 48 46 45 38 42 40 37 35 32 32 31 33 25 20
57 54 51 48 45 41 44 52 63 60 56 61 64 59 67 66 55 57 42 42 41 42 45 40 38 36 34 33 33 30 25 26
58 58 56 56 53 50 44 44 51 59 53 57 58 58 55 58 49 49 42 46 47 47 47 45 40 35 35 33 33 29 27 31
60 60 59 59 56 54 49 46 47 52 52 57 55 57 50 50 54 51 53 50 50 50 50 47 42 38 38 34 34 31 31 31
64 64 64 61 58 55 53 47 48 49 50 49 52 52 46 46 48 49 53 54 50 51 52 49 42 43 39 36 38 36 31 30
71 71 67 65 62 62 53 50 50 49 55 51 45 52 50 52 47 40 43 57 54 53 52 50 46 43 42 40 40 38 33 33
63 63 61 59 59 58 55 50 54 54 57 54 54 53 52 52 45 39 36 54 51 54 52 49 47 44 43 42 39 38 35 33
46 39 48 53 53 55 52 51 53 54 55 52 56 45 50 45 43 44 44 46 51 51 49 51 49 46 43 41 42 36 36 37
35 38 36 44 48 57 56 52 51 51 52 50 40 34 37 40 42 41 42 41 51 51 46 42 43 45 40 40 33 37 38 38
28 36 32 42 49 54 50 48 47 44 41 37 38 35 37 38 29 39 45 47 43 46 46 44 44 41 43 42 41 42 40 40
25 30 29 44 38 42 43 42 36 36 34 41 33 32 31 27 29 30 33 48 49 46 44 45 42 41 41 41 43 42 42 42
12 27 35 47 42 44 41 39 41 36 39 37 33 33 30 29 27 15 22 29 50 54 46 43 41 44 45 40 44 43 43 44
14 33 37 36 39 49 39 43 53 35 34 36 35 36 32 32 27 25 29 28 31 48 53 47 46 46 43 46 46 42 41 44
26 26 30 21 32 36 42 47 49 41 35 38 38 36 34 33 29 28 30 23 27 30 42 59 53 50 46 47 43 42 43 46
16 15 25 22 19 40 48 52 54 49 49 41 39 44 41 36 31 32 24 21 15 20 31 50 58 55 51 48 45 45 46 48
17 20 18 16 24 28 33 32 36 41 43 49 46 42 43 37 32 31 25 25 23 19 19 31 46 60 55 51 50 49 49 50
13 15 16 13 14 22 20 23 28 31 36 41 41 43 39 36 34 34 32 31 32 26 19 24 34 40 53 55 52 52 55 54
Wind_Direction
260 258 257 259 262 264 263 264 265 266 268 269 267 263 260 257 256 259 262 261 258 255 258 261 263 264 265 269 268 275 291 287
264 258 255 253 255 259 262 263 262 262 265 268 268 266 267 259 256 253 256 255 256 251 255 258 260 262 260 263 263 267 265 272
267 267 266 261 255 256 258 261 262 261 258 253 261 261 265 265 261 257 257 258 255 254 252 254 254 257 253 257 260 264 252 274
265 266 267 269 269 265 258 258 259 259 259 261 264 265 263 262 259 262 252 254 246 246 251 253 250 251 250 253 262 271 270 282
267 267 266 269 271 272 266 259 256 256 255 255 261 261 260 261 249 255 245 239 244 246 251 252 249 245 248 253 255 259 254 266
270 269 267 265 267 266 265 261 253 254 252 249 252 241 249 243 250 248 251 238 241 246 250 252 247 244 244 245 252 256 255 258
267 266 266 265 263 263 261 256 248 249 249 250 248 252 249 251 257 260 254 245 241 246 248 248 244 241 245 246 248 252 252 259
265 263 262 261 259 259 256 249 242 244 251 257 239 243 245 252 256 258 264 246 237 244 245 245 242 243 242 242 248 250 247 254
266 264 260 258 255 255 251 242 244 243 244 252 262 239 243 247 254 255 259 247 237 243 242 241 243 242 242 242 244 250 250 249
254 254 255 251 246 243 238 238 241 246 248 253 256 247 248 250 252 257 258 255 232 240 241 238 239 240 239 242 240 250 250 246
246 242 250 244 236 234 234 233 237 243 252 256 251 251 255 253 253 253 239 239 232 237 243 238 238 239 240 244 244 250 249 245
248 244 253 234 238 234 234 235 238 244 248 251 257 263 260 250 256 254 240 230 234 234 245 246 243 244 243 244 244 246 244 243
265 237 240 211 231 234 234 238 236 240 240 243 263 246 253 254 269 267 248 231 226 230 238 244 242 240 244 250 243 244 243 242
184 220 222 169 217 222 218 228 230 233 236 248 243 251 255 263 265 257 272 269 241 222 231 236 236 240 246 242 244 243 241 244
212 198 225 160 182 211 230 228 218 233 240 247 242 248 253 266 262 264 281 276 258 238 227 232 236 235 239 239 244 242 240 245
235 198 209 175 161 200 214 235 238 232 237 245 249 248 252 264 266 276 276 266 260 258 250 230 236 237 236 240 243 243 242 245
237 232 234 230 184 205 218 224 221 237 236 245 250 251 248 260 262 268 267 267 273 277 256 242 233 238 239 240 238 243 241 242
275 263 277 260 231 221 217 209 227 236 250 244 245 246 251 255 256 259 255 254 260 268 286 272 244 240 241 241 239 239 241 245
287 306 307 301 274 239 232 226 230 236 242 247 244 245 250 253 257 258 259 262 256 255 268 290 266 250 246 243 240 239 241 241